Other Public Products
Issued by NWS Charleston, SC

Current Version | Previous Version | Graphics & Text | Print | Product List | Glossary On
Versions: 1 2 3 4 5 6 7 8 9 10 11 12 13 14 15 16 17 18 19 20 21 22 23 24 25 26 27 28 29 30 31 32 33 34 35 36 37 38 39 40 41 42 43 44 45 46 47 48 49 50
000 FPUS82 KCHS 241111 OPUCHS TEST...KCHS/KSAV Gateway Observations...TEST National Weather Service Charleston SC 600 AM EST FRI FEB 24 2017 NOTE: "fair" indicates few or no clouds below 12,000 feet with no significant weather and/or obstructions to visibility. SCZ050-WAZ558-NCZ071-TXZ119-213-PAZ071-DCZ001-FLZ074-172-MI076- NYZ176-178-MAZ016-IL014-TNZ027-NJZ106-GAZ044-MD014-241200- ...Gateway Observations for Charleston International... CITY SKY/WX TMP DP RH WIND PRES REMARKS Chas Airport CLEAR 57 55 93 NE6 29.86S Seattle PTCLDY 34 30 85 S3 30.15F Charlotte CLEAR 51 49 92 CALM 29.92R Dallas DFW PTCLDY 59 43 55 NW22 29.63R Dallas Love PTCLDY 63 57 81 W7 29.62R Philladelphia MOCLDY 54 50 86 S6 29.94R Wash National CLEAR 54 53 97 S6 29.92R Baltimore PTCLDY 48 47 96 CALM 29.91R Miami CLOUDY 65 64 97 W6 29.74S FOG Detroit CLOUDY 41 39 93 NE8 29.69F FOG Newark MOCLDY 54 50 86 S5 29.92F Laguardia CLOUDY 53 48 83 S6 29.92F J F K CLOUDY 47 47 100 CALM 29.95R Boston Logan CLOUDY 48 47 96 S6 29.94R Ft. Lauderdale PTCLDY 65 64 97 NW3 29.73R Chicago O`Hare CLOUDY 40 38 93 N13 29.51F WCI 32 Chicago Midway CLOUDY 42 39 89 N7 29.50F FOG Houston Bush MOCLDY 65 61 87 NW9 29.72R Houston Hobby MOCLDY 66 64 93 S10 29.66F Nashville PTCLDY 63 55 75 S9 29.75R Atlanta PTCLDY 58 54 86 SE5 29.89R $$ GAZ044-118-TXZ119-213-NCZ071-DCZ001-MDZ014-506-PAZ021-071-NJZ106- NYZ176-178-MAZ106-OHZ011-021-055-MIZ076-KYZ091-ILZ014-INZ047- MNZ060-ONZ431-241200- ...Gateway Observations for Savannah International... CITY SKY/WX TMP DP RH WIND PRES REMARKS Savannah Arpt PTCLDY 60 57 89 NE8 29.85S Atlanta PTCLDY 58 54 86 SE5 29.89R Charlotte CLEAR 51 49 92 CALM 29.92R Dallas DFW PTCLDY 59 43 55 NW22 29.63R Houston Bush MOCLDY 65 61 87 NW9 29.72R Wash National CLEAR 54 53 97 S6 29.92R Wash Dulles PTCLDY 54 50 86 S5 29.90R Baltimore PTCLDY 48 47 96 CALM 29.91R Philadelphia MOCLDY 54 50 86 S6 29.94R Newark MOCLDY 54 50 86 S5 29.92F Laguardia CLOUDY 53 48 83 S6 29.92F J F K CLOUDY 47 47 100 CALM 29.95R Boston CLOUDY 48 47 96 S6 29.94R Pittsburg PTCLDY 55 52 89 S5 29.79S Akron MOCLDY 57 52 83 S10 29.75S Cleveland MOCLDY 60 52 74 S13 29.73S Cincinnati PTCLDY 59 53 80 S14 29.70R Columbus PTCLDY 58 54 85 S13 29.73F Detroit CLOUDY 41 39 93 NE8 29.69F FOG Chicago O`Hare CLOUDY 40 38 93 N13 29.51F WCI 32 Minneapolis CLOUDY 26 16 65 N22 29.84F WCI 12 Indianapolis CLOUDY 57 52 83 S8 29.61R Toronto Canada LGT RAIN 39 36 87 E9 29.82 WCI 33 $$

USA.gov is the U.S. government's official web portal to all federal, state and local government web resources and services.